[[{"header":{"parameterUnit":"m.s-1","parameterCategory":1,"la1":30.2991,"la2":30.254,"lo1":-89.0895,"lo2":-89.0444,"dy":0.0017,"dx":0.0017,"nx":28,"ny":28,"refTime":"2024-02-10T09:00:00:Z","depth":0,"parameterNumber":2,"parameterNumberName":"U-component_of_WINDS"},"data":[0,0,0,0,0,0,0,0,0,0,0,0,0,0,0,0,0,0,0,0,0,0,0,0,0,0,0,0,0,0,0,0,0,0,0,0,0,0,0,0,0,0,0,0,0,0,0,0,0,0,0,0,0,0,0,0,0,0,-2.2876,-2.2876,0,-2.2876,-2.2876,-2.2876,-2.2851,-2.285,-2.2849,-2.2849,-2.2848,-2.2849,-2.285,0,0,0,0,0,0,0,0,0,0,0,0,0,-2.2855,-2.2856,-2.2876,-2.2876,-2.2876,-2.2876,-2.2876,-2.2876,-2.2851,-2.285,-2.2849,-2.2848,-2.2848,-2.2849,-2.285,0,0,0,0,0,0,0,0,0,0,0,0,0,-2.2861,-2.2856,-2.2876,-2.2864,-2.2862,-2.2876,-2.2876,-2.2876,-2.2851,-2.285,-2.2849,-2.2848,-2.2848,-2.2849,-2.285,-2.2876,0,0,-2.2853,-2.2853,0,0,0,0,0,0,0,0,-2.286,-2.2861,-2.2865,-2.2864,-2.2863,-2.2863,-2.2869,-2.2876,-2.2851,-2.2855,-2.2849,-2.2847,-2.2854,-2.2854,-2.2856,-2.2876,-2.2876,-2.2853,-2.2853,-2.2854,-2.2854,0,0,0,0,0,0,0,-2.286,-2.2861,-2.2876,-2.2866,-2.2864,-2.2858,-2.2858,-2.287,-2.286,-2.2855,-2.2853,-2.2853,-2.2853,-2.2856,-2.2856,-2.2876,-2.2853,-2.2853,-2.2854,-2.2854,-2.2917,-2.2918,0,0,0,0,0,0,-2.2861,-2.2861,-2.2876,-2.2876,-2.2859,-2.2859,-2.2859,-2.2864,-2.286,-2.2859,-2.2854,-2.2852,-2.2855,-2.2855,-2.2856,-2.2886,-2.2854,-2.2855,-2.2855,-2.2916,-2.2918,-2.2919,0,0,0,0,0,0,-2.2861,-2.2863,-2.2876,-2.2868,-2.287,-2.2861,-2.2866,-2.2864,-2.2867,-2.286,-2.2858,-2.2859,-2.2854,-2.2855,-2.2871,-2.2886,-2.2855,-2.2856,-2.2915,-2.2917,-2.2918,-2.2946,0,0,0,0,0,0,-2.286,-2.2863,-2.2872,-2.2869,-2.287,-2.2891,-2.2867,-2.2865,-2.2868,-2.2866,-2.2863,-2.2862,-2.2853,-2.287,-2.2872,-2.2886,-2.2857,-2.2914,-2.2916,-2.2918,-2.2944,-2.2949,-2.2953,0,0,0,0,0,-2.286,-2.288,-2.2873,-2.2875,-2.2882,-2.2892,-2.2893,-2.2882,-2.287,-2.2879,-2.2875,-2.2862,-2.2885,-2.2872,-2.2874,-2.2889,-2.2913,-2.2915,-2.2918,-2.2942,-2.2948,-2.2953,0,0,0,0,0,0,-2.2884,-2.2879,-2.2871,-2.2891,-2.2892,-2.2888,-2.2899,-2.2889,-2.2894,-2.2891,-2.2878,-2.2878,-2.2896,-2.2895,-2.2881,-2.2914,-2.2896,-2.2899,-2.2914,-2.2919,-2.2924,-2.2923,-2.2857,0,0,0,0,0,-2.2893,-2.2901,-2.2896,-2.2914,-2.2915,-2.2907,-2.2911,-2.2904,-2.2904,-2.2905,-2.2902,-2.2903,-2.291,-2.2915,-2.2922,-2.2945,-2.2944,-2.2956,-2.2961,-2.2964,-2.2966,-2.2978,-2.2983,-2.2927,-2.2927,-2.2927,0,0,-2.2908,-2.2907,-2.2913,-2.2919,-2.2919,-2.2929,-2.2908,-2.2919,-2.2925,-2.2906,-2.2921,-2.292,-2.292,-2.294,-2.2949,-2.2939,-2.2982,-2.2967,-2.297,-2.297,-2.2981,-2.2987,-2.2991,-2.2929,-2.2928,-2.2928,0,0,-2.2942,-2.2942,-2.2956,-2.2958,-2.2959,-2.2954,-2.2957,-2.2955,-2.2953,-2.2968,-2.2954,-2.2963,-2.2976,-2.2977,-2.2979,-2.3017,-2.3004,-2.302,-2.3041,-2.3053,-2.3057,-2.3061,-2.3073,-2.3078,-2.3022,-2.3022,-2.3022,0,-2.2961,-2.2975,-2.2965,-2.2977,-2.298,-2.2965,-2.298,-2.2982,-2.2985,-2.2987,-2.2978,-2.2994,-2.2994,-2.3014,-2.3023,-2.3026,-2.3029,-2.3018,-2.3058,-2.3061,-2.3065,-2.3076,-2.3081,-2.3024,-2.3024,-2.3023,-2.3023,0,-2.2998,-2.3008,-2.302,-2.3024,-2.3029,-2.3042,-2.3035,-2.3042,-2.3035,-2.3031,-2.3047,-2.3047,-2.3053,-2.3058,-2.3051,-2.3077,-2.3071,-2.306,-2.3041,-2.3072,-2.3082,-2.3087,-2.3026,-2.3026,-2.3025,-2.3025,0,0,-2.3044,-2.3044,-2.3048,-2.305,-2.3051,-2.3059,-2.3073,-2.3079,-2.3084,-2.3088,-2.3099,-2.3112,-2.3102,-2.3104,-2.3098,-2.3109,-2.3137,-2.3096,-2.3096,-2.3102,-2.3165,-2.3172,-2.3177,-2.3131,-2.3131,-2.3132,-2.3165,0,-2.3075,-2.3097,-2.309,-2.3113,-2.3122,-2.3109,-2.3121,-2.3123,-2.3121,-2.3129,-2.3127,-2.3135,-2.3122,-2.3124,-2.3134,-2.3131,-2.3149,-2.3129,-2.3139,-2.314,-2.3137,-2.3183,-2.319,-2.322,-2.3169,-2.317,-2.317,0,-2.3113,-2.3119,-2.3142,-2.3143,-2.3147,-2.3157,-2.3163,-2.3171,-2.3174,-2.3172,-2.3176,-2.3168,-2.3182,-2.3166,-2.3184,-2.3171,-2.3175,-2.3175,-2.3176,-2.3174,-2.3155,-2.3181,-2.323,-2.3234,-2.3177,-2.3176,-2.3176,0,-2.3142,-2.3156,-2.3172,-2.3174,-2.3176,-2.3183,-2.3185,-2.3187,-2.3192,-2.3197,-2.32,-2.3208,-2.3212,-2.3218,-2.3212,-2.3201,-2.3231,-2.3214,-2.3229,-2.3229,-2.3233,-2.3233,-2.3282,-2.324,-2.324,-2.324,-2.324,0,-2.3176,-2.319,-2.3185,-2.3194,-2.3211,-2.3204,-2.322,-2.322,-2.3223,-2.3232,-2.3223,-2.3232,-2.3225,-2.3233,-2.3229,-2.3245,-2.3247,-2.3245,-2.3244,-2.3245,-2.3245,-2.3245,-2.3242,-2.3241,-2.3241,-2.3241,-2.3241,0,-2.3209,-2.3206,-2.3223,-2.3224,-2.3225,-2.3237,-2.3237,-2.3247,-2.3245,-2.3257,-2.326,-2.3257,-2.3267,-2.3263,-2.3273,-2.3271,-2.329,-2.3287,-2.3289,-2.3287,-2.3302,-2.33,-2.3351,-2.3357,-2.3313,-2.3314,-2.3314,0,-2.323,-2.3241,-2.3244,-2.325,-2.3252,-2.3261,-2.3267,-2.3262,-2.3267,-2.3273,-2.3281,-2.3291,-2.3297,-2.3314,-2.3313,-2.3321,-2.3317,-2.3335,-2.3318,-2.3319,-2.3315,-2.3313,-2.3314,-2.3337,-2.3337,-2.3338,-2.3338,0,-2.3266,-2.3265,-2.3273,-2.3281,-2.3288,-2.3294,-2.3299,-2.3304,-2.33,-2.3307,-2.3317,-2.3323,-2.3334,-2.3343,-2.3351,-2.3353,-2.3344,-2.3344,-2.3347,-2.3347,-2.3348,-2.3346,-2.3296,-2.3342,-2.3342,-2.3341,-2.3341,-2.3341,-2.3293,-2.3302,-2.3306,-2.3315,-2.3319,-2.3325,-2.3333,-2.3334,-2.3342,-2.3351,-2.3348,-2.336,-2.3364,-2.3374,-2.3377,-2.3386,-2.3379,-2.3385,-2.3386,-2.3386,-2.3388,-2.3348,-2.3388,-2.3388,-2.3388,-2.3388,-2.3388,0,-2.3327,-2.333,-2.3339,-2.3347,-2.3354,-2.3348,-2.3354,-2.3361,-2.3371,-2.3376,-2.3384,-2.3396,-2.3406,-2.3407,-2.3416,-2.3423,-2.342,-2.3425,-2.3424,-2.3424,-2.3394,-2.3389,-2.3428,-2.3428,-2.3428,-2.3428,-2.3428,-2.3428,-2.3346,-2.3361,-2.336,-2.3378,-2.3381,-2.3392,-2.3396,-2.3401,-2.3405,-2.342,-2.3428,-2.3429,-2.3432,-2.3442,-2.345,-2.3451,-2.3453,-2.346,-2.3459,-2.343,-2.3426,-2.3422,-2.3417,-2.3462,-2.3462,-2.3488,-2.3488,-2.3488]},{"header":{"parameterUnit":"m.s-1","parameterCategory":1,"la1":30.2991,"la2":30.254,"lo1":-89.0895,"lo2":-89.0444,"dy":0.0017,"dx":0.0017,"nx":28,"ny":28,"refTime":"2024-02-10T09:00:00:Z","depth":0,"parameterNumber":3,"parameterNumberName":"V-component_of_WINDS"},"data":[0,0,0,0,0,0,0,0,0,0,0,0,0,0,0,0,0,0,0,0,0,0,0,0,0,0,0,0,0,0,0,0,0,0,0,0,0,0,0,0,0,0,0,0,0,0,0,0,0,0,0,0,0,0,0,0,0,0,2.6727,2.6728,0,2.6749,2.6749,2.675,2.678,2.6781,2.6781,2.6782,2.68,2.68,2.68,0,0,0,0,0,0,0,0,0,0,0,0,0,2.6711,2.6711,2.6727,2.6728,2.6728,2.6749,2.6749,2.675,2.678,2.6781,2.6781,2.6782,2.68,2.68,2.68,0,0,0,0,0,0,0,0,0,0,0,0,0,2.6724,2.6711,2.6727,2.6746,2.6748,2.6749,2.6749,2.675,2.678,2.6781,2.6781,2.6782,2.68,2.68,2.68,2.6784,0,0,2.68,2.68,0,0,0,0,0,0,0,0,2.6723,2.6725,2.6743,2.6744,2.6747,2.6763,2.675,2.6761,2.678,2.6767,2.6782,2.6782,2.6787,2.6788,2.679,2.6785,2.6786,2.68,2.68,2.68,2.68,0,0,0,0,0,0,0,2.6722,2.6724,2.6736,2.6743,2.6745,2.6753,2.6755,2.6753,2.6772,2.6769,2.6771,2.6773,2.6788,2.679,2.6791,2.6786,2.68,2.68,2.68,2.68,2.6772,2.6772,0,0,0,0,0,0,2.6719,2.6723,2.6735,2.6737,2.6737,2.6752,2.6755,2.6757,2.6772,2.6776,2.6772,2.6774,2.679,2.6791,2.6791,2.6776,2.68,2.68,2.68,2.6773,2.6772,2.6771,0,0,0,0,0,0,2.6719,2.672,2.6734,2.673,2.6733,2.6752,2.6753,2.6757,2.6759,2.6775,2.6779,2.6771,2.679,2.6791,2.6787,2.6777,2.68,2.68,2.6774,2.6773,2.6772,2.6744,0,0,0,0,0,0,2.6718,2.6719,2.6714,2.673,2.6733,2.6729,2.6752,2.6757,2.6759,2.6762,2.6775,2.6778,2.6791,2.6787,2.6787,2.6778,2.68,2.6775,2.6773,2.6772,2.6746,2.6742,2.6739,0,0,0,0,0,2.6717,2.6704,2.6713,2.6715,2.6726,2.6729,2.673,2.6747,2.6758,2.6753,2.6764,2.6777,2.6778,2.6786,2.6786,2.6777,2.6776,2.6774,2.6772,2.6748,2.6743,2.6739,0,0,0,0,0,0,2.6684,2.6706,2.6717,2.6708,2.6717,2.6734,2.6727,2.6741,2.6745,2.6748,2.6767,2.6769,2.6763,2.6769,2.6777,2.6764,2.6779,2.6777,2.676,2.6756,2.6753,2.6751,2.68,0,0,0,0,0,2.6676,2.6677,2.6696,2.6686,2.669,2.6708,2.671,2.6722,2.6731,2.6734,2.6745,2.6752,2.6755,2.6755,2.6758,2.6747,2.6751,2.6741,2.6738,2.6735,2.6733,2.673,2.6727,2.6766,2.6766,2.6766,0,0,2.6658,2.667,2.6669,2.668,2.6688,2.6689,2.6711,2.6709,2.6711,2.6734,2.6731,2.6739,2.6749,2.6742,2.6739,2.6747,2.6724,2.6733,2.673,2.673,2.6728,2.6725,2.6721,2.6765,2.6765,2.6765,0,0,2.6627,2.6636,2.6631,2.6639,2.6652,2.6664,2.6663,2.6679,2.6686,2.6684,2.6702,2.6703,2.6706,2.6713,2.6717,2.6692,2.6705,2.6692,2.6674,2.6671,2.6668,2.6665,2.6658,2.6656,2.669,2.669,2.669,0,2.6604,2.6606,2.6626,2.6625,2.663,2.6653,2.6648,2.6654,2.6667,2.6669,2.6678,2.6685,2.6692,2.6689,2.6683,2.6685,2.6685,2.6691,2.6667,2.6665,2.6663,2.6656,2.6653,2.6689,2.6689,2.6689,2.6689,0,2.6578,2.658,2.6573,2.6588,2.6591,2.6588,2.6607,2.6609,2.6621,2.6633,2.6632,2.6642,2.6649,2.6649,2.666,2.6647,2.6652,2.6664,2.6679,2.6657,2.6651,2.6649,2.6687,2.6687,2.6688,2.6688,0,0,2.6525,2.6552,2.655,2.6558,2.6575,2.6576,2.6574,2.6583,2.6585,2.6593,2.6593,2.6596,2.6608,2.6613,2.6625,2.6622,2.6605,2.6635,2.6635,2.663,2.6594,2.6586,2.6583,2.6614,2.6613,2.6613,2.6594,0,2.6499,2.6499,2.6518,2.6513,2.6516,2.6539,2.6538,2.6548,2.656,2.6564,2.6576,2.6579,2.6593,2.6597,2.6595,2.6607,2.6598,2.6609,2.6614,2.6614,2.6612,2.658,2.6571,2.6552,2.6592,2.6591,2.6591,0,2.6468,2.6477,2.6473,2.6493,2.6495,2.6494,2.6504,2.6507,2.652,2.6529,2.6536,2.655,2.6551,2.6566,2.6567,2.6574,2.6578,2.6584,2.6584,2.6586,2.6602,2.6582,2.6546,2.6544,2.6587,2.6587,2.6588,0,2.6433,2.6444,2.6443,2.6449,2.6471,2.6471,2.648,2.6494,2.6498,2.6507,2.6511,2.6519,2.6524,2.653,2.6547,2.6555,2.6547,2.6562,2.6555,2.6554,2.6552,2.6552,2.6518,2.6552,2.6552,2.6552,2.6552,0,2.6402,2.6399,2.6428,2.6428,2.6426,2.6448,2.6445,2.6456,2.6469,2.6471,2.6491,2.6493,2.6515,2.652,2.6533,2.6533,2.6534,2.6542,2.6546,2.6541,2.654,2.6544,2.6546,2.6552,2.6552,2.6552,2.6552,0,2.6362,2.6382,2.6383,2.6406,2.6411,2.6409,2.6428,2.6429,2.6442,2.6446,2.6448,2.6468,2.6475,2.6493,2.6503,2.6513,2.651,2.6516,2.6506,2.6509,2.6501,2.6502,2.6469,2.6466,2.6501,2.65,2.65,0,2.6342,2.6341,2.6364,2.6368,2.6377,2.6383,2.6389,2.641,2.6415,2.6431,2.6431,2.644,2.6448,2.6458,2.6473,2.6482,2.6489,2.6477,2.6491,2.6487,2.6491,2.6492,2.6493,2.6474,2.6474,2.6474,2.6473,0,2.6305,2.6315,2.6323,2.6336,2.6342,2.6353,2.6364,2.6366,2.639,2.6395,2.6403,2.641,2.6423,2.6431,2.6443,2.6452,2.6467,2.6469,2.6468,2.6464,2.6459,2.6463,2.65,2.647,2.647,2.647,2.647,2.6471,2.6275,2.6276,2.6294,2.6303,2.6314,2.6325,2.6328,2.6343,2.635,2.6364,2.6375,2.6383,2.6398,2.6416,2.6424,2.6431,2.6438,2.6436,2.6436,2.6435,2.6434,2.6457,2.6432,2.6433,2.6433,2.6433,2.6433,0,2.6241,2.6254,2.6262,2.6278,2.6286,2.6301,2.6314,2.632,2.6327,2.634,2.6349,2.6359,2.6368,2.6386,2.6397,2.6399,2.6406,2.6401,2.6402,2.6404,2.6426,2.6426,2.6395,2.6395,2.6395,2.6395,2.6395,2.6395,2.6224,2.6227,2.624,2.6249,2.6262,2.6271,2.6278,2.6288,2.63,2.6311,2.632,2.6332,2.6347,2.636,2.6369,2.6374,2.6378,2.6371,2.6378,2.6398,2.6402,2.6405,2.6406,2.6372,2.6372,2.6357,2.6356,2.6356]}]]